Monte Cimone, Italy

9:18 PM CET on February 19, 2018 (GMT +0100)
Monte Cimone

Weather History for LIVC - February, 2013

Change the Weather History Date:

Thursday, February 28, 2013

  Actual Average Record
Temperature  
Mean Temperature 28 °F -  
Max Temperature 31 °F 30 °F 37 °F (2008)
Min Temperature 24 °F 22 °F -2 °F (2005)
Degree Days  
Heating Degree Days 38    
Moisture  
Dew Point 21 °F    
Average Humidity 77    
Maximum Humidity 93    
Minimum Humidity 61    
Precipitation  
Precipitation 0.00 in 0.07 in - ()
Sea Level Pressure  
Sea Level Pressure 30.05 in    
Wind  
Wind Speed 10 mph ()    
Max Wind Speed 25 mph    
Max Gust Speed -    
Visibility 9.4 miles    
Events Fog    
Averages and records for this station are not official NWS values.
T = Trace of Precipitation, MM = Missing Value Source: Averaged Metar Reports

Daily Weather History Graph

Daily Weather History Graph

Search for Another Location

Airport or City:

Trip Planner

Search our weather history database for the weather conditions in past years. The results will help you decide how hot, cold, wet, or windy it might be!

Date:

Astronomy

Feb. 28, 2013 Rise Set
Actual Time 6:55 AM CET 6:04 PM CET
Civil Twilight 6:26 AM CET 6:33 PM CET
Nautical Twilight 5:53 AM CET 7:06 PM CET
Astronomical Twilight 5:19 AM CET 7:40 PM CET
Moon 9:22 PM CET (2/28) 7:48 AM CET (2/28)
Length of Visible Light 12h 06m
Length of Day
11h 08m
Waning Gibbous, 92% of the Moon is Illuminated
Feb 28
Waning Gibbous
Mar 4
Last Quarter
Mar 11
New
Mar 19
First Quarter
Mar 27
Full

Hourly Weather History & Observations

Time (CET) Temp. Windchill Dew Point Humidity Pressure Visibility Wind Dir Wind Speed Gust Speed Precip Events Conditions
12:55 AM 24.8 °F 15.3 °F 23.0 °F 93% 30.04 in 0.0 mi NNE 9.2 mph - N/A Fog Light Freezing Fog
1:00 AM 25 °F - 22 °F 86%  in 0 mi NNE 9.2 mph - - Fog Heavy Fog
1:55 AM 26.6 °F 17.5 °F 23.0 °F 86% 30.04 in - NNE 9.2 mph - N/A   Clear
2:55 AM 26.6 °F 18.2 °F 19.4 °F 74% 30.04 in - NNE 8.1 mph - N/A   Clear
3:55 AM 28.4 °F 20.4 °F 19.4 °F 69% 30.04 in - NNE 8.1 mph - N/A   Clear
4:55 AM 28.4 °F 21.2 °F 21.2 °F 74% 30.04 in - NNE 6.9 mph - N/A   Clear
6:55 AM 26.6 °F 20.0 °F 19.4 °F 74% 30.04 in - NNE 5.8 mph - N/A   Clear
7:00 AM 27 °F - 19 °F 61%  in 19 mi NNE 5.8 mph - -   Partly Cloudy
7:55 AM 26.6 °F 16.8 °F 19.4 °F 74% 30.04 in - NNE 10.4 mph - N/A   Clear
8:55 AM 26.6 °F 15.2 °F 17.6 °F 69% 30.04 in - NE 13.8 mph - N/A   Clear
9:55 AM 26.6 °F - 17.6 °F 69% 30.04 in - Calm Calm - N/A   Clear
10:55 AM 26.6 °F 11.4 °F 17.6 °F 69% 30.04 in - NE 25.3 mph - N/A   Clear
11:55 AM 26.6 °F 12.7 °F 21.2 °F 80% 30.06 in - NE 20.7 mph - N/A   Clear
12:55 PM 26.6 °F 13.8 °F 21.2 °F 80% 30.06 in - NE 17.3 mph - N/A   Clear
1:00 PM 27 °F - 22 °F 74%  in 19 mi NE 17.3 mph - -  
1:55 PM 28.4 °F 17.5 °F 23.0 °F 80% 30.06 in - NE 13.8 mph - N/A   Clear
2:55 PM 28.4 °F 18.5 °F 23.0 °F 80% 30.06 in 6.2 mi NE 11.5 mph - N/A   Partly Cloudy
3:55 PM 30.2 °F 21.9 °F 24.8 °F 80% 30.06 in 6.2 mi NE 9.2 mph - N/A   Partly Cloudy
4:55 PM 32.0 °F 24.2 °F 24.8 °F 75% 30.06 in 6.2 mi NE 9.2 mph - N/A   Partly Cloudy
5:55 PM 26.6 °F 16.2 °F 19.4 °F 74% 30.04 in - NE 11.5 mph - N/A   Clear
6:55 PM 26.6 °F 15.7 °F 19.4 °F 74% 30.04 in - NE 12.7 mph - N/A   Clear
7:00 PM 27 °F - 20 °F 64%  in 19 mi NE 12.7 mph - -   Partly Cloudy
7:55 PM 24.8 °F 12.9 °F 19.4 °F 80% 30.04 in - NE 13.8 mph - N/A   Clear
8:55 PM 24.8 °F 12.9 °F 19.4 °F 80% 30.04 in - NE 13.8 mph - N/A   Clear
9:55 PM 24.8 °F 12.9 °F 21.2 °F 86% 30.04 in - NE 13.8 mph - N/A   Clear
10:55 PM 24.8 °F 12.9 °F 21.2 °F 86% 30.04 in - NE 13.8 mph - N/A   Clear
11:55 PM 24.8 °F 11.5 °F 21.2 °F 86% 30.04 in - NE 17.3 mph - N/A   Clear